Total_Precipitation_Accumulation
1.55 1.37 1.23 1.26 1.24 1.21 1.25 1.31 1.24 1.14 1.09 1.00 0.96 0.92 0.87 0.76 0.73 0.69 0.64 0.63 0.61 0.69 0.96 1.19 1.38 1.64 1.88 2.07 2.25 2.22 1.94 1.77 1.64 1.51 1.50 1.62 1.70 1.70 1.73 1.81 1.93 1.91 1.79
1.65 1.53 1.33 1.26 1.26 1.22 1.23 1.22 1.20 1.10 1.02 0.91 0.85 0.83 0.89 0.86 0.80 0.74 0.64 0.60 0.59 0.61 0.78 1.04 1.30 1.57 1.88 2.19 2.41 2.57 2.34 2.18 2.00 1.78 1.59 1.60 1.72 1.79 1.79 1.87 1.95 2.10 2.14
1.85 1.79 1.60 1.41 1.31 1.29 1.32 1.31 1.25 1.23 1.11 0.95 0.83 0.78 0.77 0.79 0.79 0.75 0.67 0.61 0.61 0.62 0.71 0.92 1.14 1.40 1.73 2.12 2.43 2.64 2.75 2.57 2.39 2.20 1.94 1.73 1.74 1.85 1.95 2.04 2.10 2.20 2.29
2.13 2.02 1.87 1.68 1.54 1.42 1.35 1.35 1.27 1.23 1.17 1.06 0.92 0.82 0.76 0.73 0.70 0.68 0.64 0.62 0.64 0.65 0.71 0.83 0.95 1.22 1.51 1.79 2.18 2.51 2.87 2.86 2.82 2.70 2.56 2.22 1.97 1.96 2.09 2.19 2.32 2.37 2.39
2.40 2.30 2.13 1.95 1.85 1.72 1.55 1.42 1.34 1.23 1.15 1.11 1.07 0.99 0.88 0.78 0.73 0.70 0.64 0.58 0.56 0.58 0.64 0.72 0.81 0.97 1.22 1.50 1.86 2.24 2.64 3.01 3.13 3.15 3.13 2.92 2.53 2.22 2.26 2.39 2.45 2.56 2.65
2.66 2.59 2.42 2.20 2.12 2.01 1.87 1.68 1.52 1.37 1.23 1.15 1.16 1.16 1.06 0.95 0.84 0.74 0.67 0.63 0.58 0.56 0.60 0.65 0.67 0.75 0.94 1.19 1.52 1.93 2.38 2.89 3.27 3.37 3.36 3.38 3.25 2.82 2.61 2.67 2.67 2.76 2.89
2.83 2.82 2.62 2.45 2.33 2.18 1.94 1.81 1.75 1.64 1.46 1.31 1.32 1.36 1.23 1.06 1.00 0.86 0.73 0.66 0.62 0.56 0.57 0.64 0.67 0.67 0.77 1.00 1.22 1.50 2.03 2.59 3.08 3.65 3.72 3.59 3.66 3.50 3.14 2.98 2.93 3.01 3.18
2.78 2.97 2.83 2.63 2.48 2.37 2.24 2.02 1.87 1.83 1.75 1.54 1.43 1.46 1.49 1.41 1.16 0.95 0.83 0.72 0.66 0.63 0.61 0.60 0.66 0.69 0.71 0.85 0.97 1.25 1.68 2.23 2.63 3.38 4.15 4.21 4.19 4.29 3.91 3.50 3.33 3.33 3.45
2.53 2.62 2.66 2.53 2.52 2.44 2.36 2.22 2.03 1.93 1.94 1.79 1.52 1.59 1.66 1.49 1.18 1.00 0.89 0.80 0.73 0.68 0.64 0.61 0.64 0.69 0.72 0.87 0.93 1.06 1.32 1.73 2.19 2.78 3.66 4.48 4.69 4.86 4.81 4.18 3.82 3.75 3.75
2.45 2.48 2.52 2.51 2.33 2.25 2.20 2.18 2.13 2.00 2.02 2.02 1.78 1.49 1.37 1.31 1.34 1.22 0.99 0.92 0.91 0.83 0.73 0.66 0.64 0.71 0.75 0.84 0.97 1.05 1.10 1.28 1.70 2.24 2.99 3.95 4.79 5.22 5.52 5.14 4.48 4.22 4.14
2.46 2.53 2.48 2.49 2.46 2.28 2.11 2.06 2.09 2.09 2.04 1.97 1.86 1.66 1.42 1.19 1.13 1.28 1.14 0.99 1.04 1.01 0.93 0.83 0.77 0.78 0.80 0.86 0.91 1.03 1.17 1.24 1.60 1.92 2.39 3.10 4.22 5.16 5.83 5.96 5.37 4.68 4.35
2.29 2.39 2.44 2.38 2.35 2.34 2.27 2.09 2.04 2.10 2.05 1.97 1.87 1.75 1.63 1.49 1.26 1.23 1.18 0.97 0.95 0.95 0.99 1.03 0.99 0.96 0.94 0.94 1.03 1.25 1.27 1.36 1.62 1.77 1.90 2.25 3.05 4.15 5.12 5.72 5.57 4.94 4.53
2.11 2.14 2.23 2.27 2.21 2.17 2.21 2.20 2.11 2.06 2.05 2.04 1.95 1.80 1.65 1.52 1.40 1.41 1.44 1.24 1.03 0.90 0.94 1.02 1.03 1.06 1.09 1.08 1.19 1.33 1.30 1.46 1.57 1.68 1.71 1.86 2.28 3.09 4.05 4.99 5.46 5.16 4.68
1.89 1.89 1.94 1.99 1.98 1.94 1.97 2.10 2.12 2.02 2.00 2.02 1.97 1.90 1.80 1.59 1.50 1.55 1.64 1.71 1.54 1.12 0.93 0.94 0.97 1.04 1.16 1.20 1.32 1.48 1.38 1.50 1.57 1.65 1.71 1.75 1.91 2.24 2.96 4.02 5.28 5.71 5.09
1.86 1.87 1.86 1.86 1.79 1.76 1.75 1.80 1.89 1.86 1.87 1.89 1.91 1.92 1.92 1.75 1.62 1.56 1.59 1.79 2.12 1.88 1.23 0.91 0.93 1.00 1.10 1.23 1.43 1.29 1.20 1.32 1.39 1.47 1.59 1.68 1.78 1.90 2.19 2.85 3.84 5.18 5.80
1.88 1.87 1.85 1.84 1.77 1.66 1.68 1.70 1.67 1.63 1.70 1.74 1.77 1.84 1.86 1.77 1.66 1.59 1.62 1.64 1.76 1.99 1.66 1.00 0.90 0.95 1.09 1.18 1.36 1.24 1.25 1.45 1.43 1.46 1.53 1.61 1.71 1.78 1.92 2.22 2.78 3.64 4.85
1.81 1.73 1.69 1.74 1.75 1.67 1.65 1.72 1.67 1.58 1.63 1.65 1.65 1.66 1.67 1.67 1.68 1.61 1.61 1.61 1.57 1.66 1.69 1.10 0.91 0.95 1.15 1.24 1.25 1.21 1.26 1.32 1.32 1.48 1.52 1.55 1.63 1.73 1.92 2.13 2.43 2.87 3.53
1.79 1.75 1.64 1.62 1.67 1.68 1.67 1.70 1.67 1.57 1.54 1.55 1.58 1.57 1.57 1.59 1.63 1.57 1.55 1.51 1.44 1.39 1.47 1.29 1.02 1.00 1.09 1.16 1.26 1.34 1.34 1.34 1.29 1.44 1.47 1.55 1.68 1.75 1.87 2.08 2.34 2.63 2.97
1.67 1.72 1.71 1.65 1.63 1.67 1.68 1.62 1.62 1.57 1.50 1.47 1.48 1.51 1.48 1.56 1.65 1.58 1.55 1.48 1.36 1.28 1.29 1.32 1.15 1.04 1.08 1.14 1.31 1.47 1.47 1.48 1.41 1.48 1.51 1.57 1.67 1.78 1.86 1.99 2.25 2.46 2.62
1.60 1.56 1.56 1.60 1.67 1.80 1.86 1.83 1.84 1.69 1.55 1.50 1.44 1.40 1.42 1.54 1.61 1.66 1.72 1.59 1.49 1.48 1.48 1.52 1.38 1.23 1.22 1.23 1.42 1.68 1.79 1.74 1.66 1.48 1.55 1.60 1.71 1.84 1.87 1.87 1.96 2.11 2.24
1.58 1.50 1.48 1.53 1.63 1.97 2.37 2.39 2.28 1.97 1.65 1.48 1.39 1.36 1.42 1.57 1.65 1.85 2.02 1.91 1.88 1.97 1.90 1.87 1.74 1.62 1.53 1.54 1.61 1.64 1.82 1.86 1.85 1.67 1.56 1.48 1.50 1.52 1.63 1.75 1.83 1.92 2.05
1.67 1.56 1.49 1.49 1.54 1.82 2.55 2.71 2.33 1.83 1.61 1.48 1.41 1.34 1.35 1.51 1.54 1.68 1.90 2.02 2.10 2.24 2.32 2.27 2.11 1.92 1.64 1.54 1.57 1.71 1.80 2.01 2.10 1.76 1.67 1.63 1.55 1.64 1.60 1.60 1.84 1.88 1.97
1.75 1.74 1.58 1.45 1.41 1.61 2.33 2.51 2.24 1.76 1.56 1.46 1.39 1.37 1.37 1.41 1.50 1.45 1.60 1.69 1.74 1.91 2.15 2.28 2.33 1.89 1.63 1.54 1.78 1.98 1.93 2.01 1.97 1.85 1.99 1.97 1.66 1.69 1.62 1.74 1.99 1.91 1.92
1.63 1.69 1.64 1.52 1.40 1.48 2.08 2.29 2.13 1.76 1.60 1.50 1.39 1.36 1.36 1.37 1.46 1.68 1.64 1.59 1.49 1.52 1.73 1.93 2.21 2.05 1.84 1.87 2.22 2.55 2.63 2.49 2.06 1.83 2.00 2.25 1.77 1.67 1.71 1.82 2.02 1.95 1.87
1.52 1.52 1.50 1.49 1.45 1.44 1.83 2.13 1.98 1.66 1.60 1.50 1.38 1.35 1.37 1.35 1.63 1.92 1.81 1.64 1.45 1.35 1.47 1.82 2.14 2.29 2.35 2.50 2.75 3.07 3.23 3.05 2.55 1.96 1.89 2.19 1.98 1.77 1.92 2.13 2.20 2.15 1.90
1.45 1.45 1.45 1.43 1.36 1.32 1.61 1.93 1.94 1.61 1.53 1.46 1.38 1.34 1.49 1.58 1.80 1.93 1.75 1.71 1.79 1.53 1.36 1.44 1.55 1.67 1.75 1.91 2.34 2.64 2.97 3.08 2.69 2.43 1.99 2.13 2.25 2.27 2.58 2.40 2.23 2.06 1.86